Change the Weather History Date:

Saturday, October 8, 2011

  Actual Average Record
Temperature  
Mean Temperature 47 °F -  
Max Temperature 66 °F 54 °F 75 °F (2003)
Min Temperature 28 °F 34 °F 24 °F (2005)
Degree Days  
Heating Degree Days 18    
Moisture  
Dew Point 24 °F    
Average Humidity 44    
Maximum Humidity 80    
Minimum Humidity 11    
Precipitation  
Precipitation 0.00 in 0.06 in - ()
Sea Level Pressure  
Sea Level Pressure 30.13 in    
Wind  
Wind Speed 2 mph ()    
Max Wind Speed 9 mph    
Max Gust Speed -    
Visibility 6.4 miles    
Events      
Averages and records for this station are not official NWS values.
T = Trace of Precipitation, MM = Missing Value Source: Averaged Metar Reports

Daily Weather History Graph

Daily Weather History Graph

Search for Another Location

Airport or City:

Trip Planner

Search our weather history database for the weather conditions in past years. The results will help you decide how hot, cold, wet, or windy it might be!

Date:

Astronomy

Oct. 08, 2011 Rise Set
Actual Time 6:17 AM EEST 5:47 PM EEST
Civil Twilight 5:50 AM EEST 6:14 PM EEST
Nautical Twilight 5:19 AM EEST 6:45 PM EEST
Astronomical Twilight 4:48 AM EEST 7:17 PM EEST
Moon 3:48 PM EEST (10/8) 2:44 AM EEST (10/8)
Length of Visible Light 12h 23m
Length of Day
11h 29m
Waxing Gibbous, 88% of the Moon is Illuminated
Oct 8
Waxing Gibbous
Oct 12
Full
Oct 20
Last Quarter
Oct 26
New
Nov 2
First Quarter

Hourly Weather History & Observations

Time (EEST) Temp. Windchill Dew Point Humidity Pressure Visibility Wind Dir Wind Speed Gust Speed Precip Events Conditions
12:20 AM 33.8 °F - 23.0 °F 65% 30.15 in - Calm Calm - N/A   Clear
12:50 AM 33.8 °F - 23.0 °F 65% 30.15 in - WSW 1.2 mph - N/A   Clear
1:20 AM 33.8 °F - 23.0 °F 65% 30.15 in - Variable 1.2 mph - N/A   Clear
1:50 AM 35.6 °F - 23.0 °F 60% 30.15 in - Calm Calm - N/A   Clear
2:20 AM 33.8 °F - 23.0 °F 65% 30.15 in - Calm Calm - N/A   Clear
2:50 AM 32.0 °F - 21.2 °F 64% 30.12 in - Calm Calm - N/A   Clear
3:00 AM 32 °F - 21 °F 53%  in 12 mi Calm Calm - -  
3:20 AM 30.2 °F - 23.0 °F 75% 30.12 in - Calm Calm - N/A   Clear
3:50 AM 32.0 °F - 23.0 °F 69% 30.12 in - Calm Calm - N/A   Clear
4:20 AM 33.8 °F - 21.2 °F 60% 30.12 in - Calm Calm - N/A   Clear
4:50 AM 30.2 °F - 24.8 °F 80% 30.12 in - Calm Calm - N/A   Clear
5:20 AM 32.0 °F - 23.0 °F 69% 30.12 in - Calm Calm - N/A   Clear
5:50 AM 30.2 °F - 23.0 °F 75% 30.12 in - Calm Calm - N/A   Clear
6:20 AM 28.4 °F - 21.2 °F 74% 30.15 in - West 2.3 mph - N/A   Clear
6:50 AM 30.2 °F - 23.0 °F 75% 30.15 in - Variable 1.2 mph - N/A   Clear
7:20 AM 33.8 °F - 23.0 °F 65% 30.15 in - Calm Calm - N/A   Clear
7:50 AM 39.2 °F - 23.0 °F 52% 30.15 in - Calm Calm - N/A   Clear
8:20 AM 44.6 °F - 24.8 °F 46% 30.15 in - Variable 1.2 mph - N/A   Clear
8:50 AM 48.2 °F - 24.8 °F 40% 30.15 in - Variable 1.2 mph - N/A   Clear
9:00 AM 48 °F - 25 °F 27%  in 6 mi North 1.2 mph - -  
9:20 AM 53.6 °F - 26.6 °F 35% 30.15 in - Variable 3.5 mph - N/A   Clear
9:50 AM 57.2 °F - 26.6 °F 31% 30.15 in 6.2 mi East 3.5 mph - N/A   Partly Cloudy
10:20 AM 60.8 °F - 24.8 °F 25% 30.12 in 6.2 mi ENE 4.6 mph - N/A   Partly Cloudy
10:50 AM 62.6 °F - 24.8 °F 24% 30.12 in 6.2 mi NE 4.6 mph - N/A   Scattered Clouds
11:20 AM 62.6 °F - 24.8 °F 24% 30.12 in 6.2 mi Variable 3.5 mph - N/A   Scattered Clouds
11:50 AM 64.4 °F - 24.8 °F 22% 30.12 in 6.2 mi WNW 5.8 mph - N/A   Scattered Clouds
12:20 PM 64.4 °F - 24.8 °F 22% 30.09 in 6.2 mi West 5.8 mph - N/A   Scattered Clouds
12:50 PM 64.4 °F - 23.0 °F 21% 30.09 in 6.2 mi Variable 5.8 mph - N/A   Mostly Cloudy
1:20 PM 64.4 °F - 23.0 °F 21% 30.09 in 6.2 mi Variable 4.6 mph - N/A   Mostly Cloudy
1:50 PM 64.4 °F - 24.8 °F 22% 30.09 in 6.2 mi Variable 5.8 mph - N/A   Mostly Cloudy
2:20 PM 64.4 °F - 24.8 °F 22% 30.09 in 6.2 mi West 9.2 mph - N/A   Mostly Cloudy
2:50 PM 64.4 °F - 24.8 °F 22% 30.09 in 6.2 mi WSW 9.2 mph - N/A   Mostly Cloudy
3:00 PM 65 °F - 23 °F 11%  in 6 mi WSW 9.2 mph - -   Partly Cloudy
3:20 PM 66.2 °F - 24.8 °F 21% 30.09 in 6.2 mi SW 5.8 mph - N/A   Mostly Cloudy
3:50 PM 64.4 °F - 26.6 °F 24% 30.09 in 6.2 mi SSW 8.1 mph - N/A   Mostly Cloudy
4:20 PM 64.4 °F - 24.8 °F 22% 30.06 in 6.2 mi SSE 4.6 mph - N/A   Mostly Cloudy
4:50 PM 62.6 °F - 24.8 °F 24% 30.06 in 6.2 mi SSW 5.8 mph - N/A   Mostly Cloudy
5:20 PM 60.8 °F - 24.8 °F 25% 30.09 in 6.2 mi SSW 6.9 mph - N/A   Mostly Cloudy
5:50 PM 59.0 °F - 26.6 °F 29% 30.09 in 6.2 mi SSW 4.6 mph - N/A   Mostly Cloudy
6:20 PM 57.2 °F - 24.8 °F 29% 30.09 in 6.2 mi SSW 6.9 mph - N/A   Mostly Cloudy
6:50 PM 53.6 °F - 24.8 °F 33% 30.12 in 6.2 mi South 4.6 mph - N/A   Mostly Cloudy
7:20 PM 50.0 °F - 24.8 °F 37% 30.12 in 6.2 mi SW 4.6 mph - N/A   Mostly Cloudy
7:50 PM 48.2 °F - 26.6 °F 43% 30.12 in 6.2 mi Variable 2.3 mph - N/A   Partly Cloudy
8:20 PM 50.0 °F - 26.6 °F 40% 30.15 in - West 4.6 mph - N/A   Clear
8:50 PM 50.0 °F - 26.6 °F 40% 30.15 in - WSW 4.6 mph - N/A   Clear
9:00 PM 50 °F - 26 °F 27%  in 6 mi WSW 4.6 mph - -  
9:20 PM 44.6 °F - 26.6 °F 49% 30.15 in - Calm Calm - N/A   Clear
9:50 PM 41.0 °F 39.0 °F 26.6 °F 57% 30.15 in - West 3.5 mph - N/A   Clear
10:20 PM 41.0 °F - 26.6 °F 57% 30.15 in - Variable 1.2 mph - N/A   Clear
10:50 PM 39.2 °F - 24.8 °F 56% 30.18 in - Variable 2.3 mph - N/A   Clear
11:20 PM 37.4 °F - 24.8 °F 60% 30.18 in - ENE 1.2 mph - N/A   Clear
11:50 PM 35.6 °F - 26.6 °F 70% 30.18 in - Variable 1.2 mph - N/A   Clear